sat.trackr.live / text

‹ back to catalog

STARLINK-2591

NORAD 48361 · 2021-038J

PAYLOAD ACTIVE UNKNOWN

§ Identity

Operator
Country
US
Launch date
2021-05-04
Launch site
AFETR
Launch vehicle
Mass (kg)
RCS (m²)

Purposes: comms

External: N2YO · Heavens-Above · Gunter

§ Orbital elements

Epoch: 2026-09-15T20:32:44.111904Z

Period
94.01 min
Inclination
53.1593°
Eccentricity
0.0001294
Mean motion
15.31699546 rev/d
Perigee alt
469.9 km
Apogee alt
471.6 km
Semi-major
6,848.9 km
B*
-7.9687e-5
RAAN
193.1501°
Arg perigee
104.4501°
Mean anomaly
255.6644°
Rev number
29,621

§ Raw data

STARLINK-25911 48361U 21038J   26258.85606611 -.00002837  00000+0 -79687-4 0  99942 48361  53.1593 193.1501 0001294 104.4501 255.6644 15.31699546296212

JSON: /api/v1/satellites/48361 · /tle

For live sub-satellite position, see the globe view (requires WebGL).

§ Visibility from observer

Set your observer location to see the next 7 days of passes ≥ 10°. The values pass through the URL so the page stays shareable.

No JS? Fill the form by hand. The geolocation button needs JavaScript.